Theta_e
302 301 300 302 304 309 312 314 313 310 307 306 310 311 312 310 313 305 312 308 309 314 316 320 324 323 318 318 320 321 328 332 324 316 316 316 318 316 320 326 328 327 328 334 333
300 299 299 303 305 308 312 313 313 311 310 304 309 310 312 312 314 311 309 307 309 315 317 322 324 323 320 319 320 325 330 330 320 315 315 315 316 316 318 324 328 326 329 332 334
300 297 296 301 306 307 311 311 312 311 311 304 308 312 313 313 316 312 310 308 311 315 317 322 323 320 317 319 320 321 330 320 314 314 313 315 315 315 318 320 317 322 324 332 333
298 296 298 303 305 305 311 312 311 308 305 305 309 312 314 314 317 313 309 308 314 315 317 320 322 320 317 319 319 319 321 317 316 314 313 314 315 315 315 315 315 318 322 328 331
296 295 299 302 304 306 310 311 310 308 307 308 310 313 314 313 312 311 310 311 314 314 317 319 321 322 318 317 318 319 316 318 316 313 313 314 315 315 314 315 316 317 318 321 326
298 296 297 302 304 305 310 310 311 309 309 309 310 312 312 315 311 310 310 313 315 315 317 317 318 319 317 317 319 316 316 316 315 315 313 314 313 315 313 314 315 317 317 316 318
298 296 295 301 303 302 309 310 311 309 308 309 311 311 310 309 310 309 310 314 316 315 315 315 316 316 319 318 317 317 317 316 316 314 314 313 315 315 312 314 315 315 315 313 313
297 296 295 300 302 302 306 311 311 308 310 310 310 311 309 307 312 307 308 312 315 314 315 314 315 316 318 317 317 318 318 321 317 316 312 315 323 314 312 314 315 315 314 312 311
295 295 295 300 302 302 307 311 311 309 309 308 311 312 309 305 312 308 312 312 316 314 314 313 315 317 317 320 319 318 322 319 319 317 315 314 320 314 312 314 315 315 314 312 311
296 295 295 299 301 304 307 310 312 310 310 311 309 311 307 308 310 309 311 313 313 314 314 315 315 317 319 321 326 323 322 320 322 319 318 318 317 313 312 314 315 315 313 312 311
295 295 296 298 301 302 308 310 311 312 311 312 310 310 308 308 309 310 311 314 313 313 317 315 317 319 319 319 317 319 322 322 320 319 319 320 320 319 313 313 315 314 313 312 310
295 295 296 298 301 303 307 307 307 307 311 311 312 310 309 309 310 310 311 313 314 316 315 316 317 317 316 316 316 318 319 320 320 315 315 318 319 318 315 313 315 315 313 312 309
295 295 296 298 301 304 307 308 308 309 311 311 311 311 309 308 308 310 310 312 315 316 315 317 316 316 315 316 317 317 318 319 320 318 315 315 317 317 317 313 313 314 314 311 310
294 295 296 298 301 303 306 307 307 308 313 312 312 312 309 309 307 310 309 311 313 316 315 316 314 314 315 316 316 318 315 315 318 319 322 317 326 324 318 315 313 312 312 311 310
295 295 295 297 299 302 304 306 307 309 316 312 312 311 310 306 308 309 310 310 312 314 315 315 314 315 316 316 315 316 315 316 317 319 319 318 320 320 319 318 314 312 312 311 310
295 295 295 297 299 301 305 305 307 312 315 312 310 311 311 308 308 309 309 309 310 312 313 314 310 314 315 315 314 314 315 315 316 317 323 320 319 321 319 318 317 314 312 311 310
295 296 295 295 299 300 304 304 311 314 307 311 311 311 311 310 309 309 310 310 311 312 312 313 313 312 311 314 314 314 314 320 321 321 319 316 320 320 319 316 316 316 312 311 309
297 297 297 297 298 300 304 307 311 308 308 309 309 311 311 310 309 309 309 311 310 310 311 313 314 313 312 314 314 314 314 318 320 321 319 315 318 319 314 309 311 309 313 310 307
296 297 297 297 298 300 304 308 311 307 308 309 310 312 312 310 310 309 308 309 309 310 311 312 313 313 313 313 314 314 315 314 316 316 317 317 316 314 309 307 308 309 311 309 306
295 296 296 296 298 302 304 308 306 306 307 309 310 312 313 311 310 310 309 308 309 309 309 311 312 313 312 311 313 314 314 314 316 319 319 317 317 318 314 311 308 308 309 307 304
295 296 295 295 298 302 306 306 304 304 304 310 309 310 312 312 311 310 309 309 308 309 309 310 311 311 311 312 314 313 315 314 315 315 316 317 317 313 313 313 309 308 306 305 301
295 298 294 296 299 297 303 302 301 303 304 307 309 310 310 312 311 311 310 309 308 308 309 309 310 313 312 311 311 314 314 315 317 316 316 316 317 311 310 308 309 307 304 303 301
296 295 295 297 300 299 298 297 300 303 303 304 307 309 310 310 311 312 310 309 308 309 308 309 313 314 313 312 310 311 313 315 316 315 316 318 316 307 307 306 306 307 304 302 299
292 297 295 294 294 297 298 299 301 300 302 302 303 304 309 310 310 311 311 310 308 308 309 308 310 311 312 311 312 312 312 314 315 316 317 316 316 315 310 308 306 305 303 301 298
291 296 294 296 294 297 297 297 299 300 300 302 303 303 307 310 310 311 310 310 308 307 308 309 312 310 310 311 311 311 313 314 315 316 317 317 316 315 316 315 308 305 303 300 298
294 293 289 292 294 295 296 297 298 299 300 299 302 303 305 306 307 309 307 310 310 308 308 308 311 310 310 310 311 310 310 312 314 315 316 316 317 316 312 312 309 305 302 300 298
292 290 293 294 294 295 297 297 296 297 298 300 300 301 302 304 303 303 303 302 301 303 307 308 310 310 312 310 311 311 309 310 311 313 313 315 315 315 314 308 308 306 302 300 299
Wind_Speed
3 5 2 5 12 2 4 7 11 3 10 14 18 16 15 17 13 11 5 7 10 9 7 8 11 13 6 2 1 1 3 6 7 5 4 6 1 7 6 8 9 7 8 12 14
5 3 3 1 8 2 8 4 10 9 6 5 17 15 15 17 10 5 8 9 12 10 6 8 13 13 4 1 1 5 4 6 7 3 2 5 6 3 3 8 12 12 12 15 14
7 7 5 4 9 3 7 1 12 6 2 3 15 14 16 17 6 4 9 11 13 11 6 8 12 8 4 1 3 2 3 9 4 2 2 4 9 5 5 7 6 5 5 11 15
8 7 8 7 2 3 10 7 10 5 3 10 13 14 19 14 8 9 11 12 15 13 8 11 10 5 3 3 2 3 1 11 7 3 2 5 7 4 10 5 3 3 5 6 10
10 9 8 7 4 6 10 11 12 10 13 14 12 15 15 5 3 12 14 15 16 11 9 9 8 7 5 4 5 7 3 5 8 12 9 12 11 7 8 5 4 4 5 4 5
10 11 7 8 7 8 12 10 10 10 12 11 14 16 4 10 4 11 16 16 14 9 10 5 4 5 10 8 3 4 8 5 4 6 4 4 6 4 4 3 3 4 5 4 3
9 10 7 7 7 5 12 14 9 10 11 12 15 10 1 6 5 12 17 15 13 10 11 6 6 1 10 7 6 4 7 4 2 2 2 8 3 4 6 5 3 4 3 3 2
8 9 6 6 6 2 8 14 14 13 15 13 13 4 4 5 7 14 17 15 16 13 8 5 5 9 8 13 5 3 2 5 7 2 0 4 12 8 8 9 5 4 3 2 2
7 8 5 6 5 6 8 16 14 13 15 13 6 3 6 6 6 13 11 11 14 10 6 5 4 7 12 9 5 2 3 7 5 9 3 7 6 7 7 8 8 7 5 3 2
7 7 6 5 6 7 8 17 16 15 13 9 6 3 4 6 7 12 15 13 8 12 7 6 4 6 8 8 4 6 3 7 10 10 11 12 12 5 6 10 12 10 8 7 5
6 6 6 4 5 4 13 19 12 8 4 4 7 5 6 8 9 9 12 11 11 16 8 11 6 7 9 7 2 4 8 7 10 3 9 18 17 16 13 13 15 14 12 10 9
4 5 5 5 6 9 5 9 10 5 4 6 5 6 6 7 5 10 16 10 12 13 10 6 11 8 3 4 3 3 4 6 3 4 3 10 19 18 15 18 18 18 17 14 11
4 5 6 6 7 11 11 11 11 9 2 2 3 4 5 7 5 13 13 7 14 15 14 11 3 11 8 7 8 6 6 5 6 9 3 5 12 19 16 20 18 17 16 16 16
6 5 5 8 6 11 6 7 10 6 2 5 5 4 5 5 4 10 14 8 8 15 15 12 6 6 10 11 10 8 3 7 6 7 4 11 6 14 22 19 20 22 22 22 21
5 4 5 6 8 6 3 8 4 4 4 10 7 5 6 7 6 9 9 5 11 11 11 4 10 11 14 11 12 6 3 4 6 8 8 8 6 6 10 20 20 27 28 26 24
3 4 3 7 7 6 9 6 5 0 3 3 1 7 9 6 4 10 11 3 1 8 11 10 1 12 13 9 10 3 2 2 4 6 6 15 9 7 8 19 19 26 30 28 25
4 4 3 3 5 6 13 8 2 4 3 3 4 6 12 7 6 9 15 12 11 9 15 14 8 3 5 10 8 9 6 2 4 5 6 2 11 15 8 10 13 19 28 27 25
5 5 6 4 6 9 18 2 5 2 4 5 2 10 10 8 7 10 14 16 19 16 9 13 10 16 12 15 8 18 15 5 5 3 6 3 8 5 3 5 3 5 24 26 24
4 4 4 5 5 9 7 3 1 2 3 6 4 6 6 9 3 11 16 18 18 12 11 14 14 8 11 12 14 13 18 16 13 7 5 9 12 10 5 2 5 7 20 25 24
2 3 2 5 8 8 2 4 1 2 3 10 6 9 9 12 9 10 12 10 21 20 13 6 9 10 10 2 13 9 9 12 8 4 7 8 12 10 7 10 9 13 20 23 23
4 2 2 8 8 3 3 1 2 1 2 2 9 7 7 10 15 11 7 6 14 18 15 8 7 3 3 13 15 9 11 12 9 13 4 5 4 3 5 2 13 16 20 23 24
3 2 5 11 3 1 3 3 2 1 1 3 4 7 9 11 12 13 13 8 14 22 14 14 5 11 10 1 9 13 22 21 10 7 13 12 19 6 3 2 5 13 18 21 22
3 2 4 11 3 4 1 4 4 4 3 1 3 4 7 7 5 14 11 11 7 11 11 12 6 7 5 6 7 8 15 20 20 14 16 9 7 3 4 7 8 12 18 22 23
5 2 2 6 3 2 3 4 4 7 4 4 2 2 7 8 13 5 10 8 8 9 20 2 12 14 18 15 10 10 17 19 18 12 23 22 23 12 8 7 10 15 19 23 25
6 3 5 4 7 7 4 1 5 5 7 9 5 8 4 5 10 9 11 7 6 10 3 7 7 17 23 19 15 12 17 21 22 29 18 33 24 22 21 16 18 18 19 23 27
5 5 5 3 3 10 5 5 7 7 9 7 9 11 11 5 2 5 7 10 7 9 9 7 10 11 19 20 20 8 11 15 25 32 25 34 27 19 10 10 16 22 25 28 30
11 7 3 7 8 7 5 6 9 8 8 5 9 8 10 12 9 14 19 19 7 4 3 5 7 9 21 15 14 13 23 28 20 23 24 24 36 11 15 11 18 25 28 35 38
Wind_Direction
125 324 343 275 220 183 177 115 170 197 172 186 191 197 195 175 157 142 155 163 158 143 123 128 147 156 143 142 81 223 168 166 169 171 96 21 165 64 44 97 62 59 93 97 160
5 2 357 43 221 149 166 286 201 182 172 184 185 188 184 160 137 154 157 148 145 134 107 130 145 148 135 80 342 247 209 164 149 23 113 50 42 27 167 104 90 82 112 139 152
34 18 15 41 192 134 134 342 137 159 216 189 162 167 168 144 154 176 160 146 140 133 135 136 147 138 81 92 27 337 236 138 140 39 11 118 68 14 134 87 56 62 100 150 154
30 30 51 52 180 182 100 160 134 130 151 140 150 164 151 141 173 178 159 146 140 122 133 141 152 113 87 139 105 81 99 143 137 32 131 89 97 71 51 66 53 89 121 135 158
33 29 50 52 63 128 121 127 118 100 113 128 152 152 139 162 109 168 162 148 141 125 151 150 160 144 140 129 121 131 112 154 120 84 103 117 93 102 66 57 81 93 98 114 163
35 27 37 47 28 132 138 147 125 117 121 149 159 150 155 166 134 171 164 152 145 130 141 130 139 121 129 129 55 131 133 127 151 152 139 102 99 133 88 67 94 113 98 87 147
28 24 30 47 22 109 125 151 141 128 126 136 150 141 178 135 134 155 163 157 155 144 136 107 113 210 128 112 108 50 136 131 99 147 138 126 142 157 149 132 152 135 102 81 155
22 20 30 38 29 163 102 145 141 129 127 134 157 127 96 125 116 151 161 163 163 150 151 109 103 94 115 125 89 84 42 179 175 195 195 189 233 156 169 158 179 173 132 73 42
24 25 42 39 40 197 116 146 135 133 129 117 120 161 119 130 106 154 158 157 166 164 151 131 130 120 141 141 104 207 181 201 198 208 159 190 236 158 183 174 193 199 175 149 101
37 36 45 60 47 219 104 140 122 138 130 90 119 148 152 149 142 159 159 149 149 156 146 173 180 172 184 187 193 187 195 206 213 193 223 217 239 172 199 202 205 204 197 176 168
40 41 45 71 85 124 112 123 118 113 102 29 144 75 127 156 136 153 159 159 152 169 175 185 205 201 194 210 30 302 212 194 225 230 245 232 240 220 199 213 208 208 202 204 174
51 64 61 75 102 145 76 90 78 113 111 71 100 79 128 152 140 161 150 171 174 183 175 176 226 203 196 197 221 214 212 233 193 135 209 258 250 247 201 223 218 211 205 205 189
81 72 77 82 98 141 105 94 103 120 157 125 154 88 148 156 178 170 173 180 194 192 193 209 96 208 203 199 211 224 240 238 253 181 241 307 262 242 226 226 223 221 212 207 202
69 67 86 108 109 140 121 97 93 88 136 159 180 183 146 156 180 172 182 199 206 202 203 235 161 203 204 220 215 232 208 257 239 204 244 180 285 225 216 219 217 214 209 209 204
73 70 82 90 120 142 134 190 51 39 193 127 144 167 167 192 123 188 188 204 199 192 193 181 199 188 208 216 206 243 107 202 204 221 281 215 262 256 216 213 217 215 209 208 207
80 77 73 93 112 143 145 117 114 299 223 161 16 179 164 190 161 141 180 199 223 207 231 237 22 233 226 215 205 125 172 182 255 256 256 235 217 248 196 224 227 212 212 206 201
88 77 78 93 113 139 163 138 123 246 335 181 197 181 195 175 180 201 188 196 189 192 211 217 211 203 231 197 203 205 186 229 221 206 248 22 219 253 237 218 232 215 205 202 197
93 84 94 92 98 139 147 119 215 54 209 91 205 174 193 183 215 201 200 212 222 221 212 213 218 200 185 216 196 205 205 204 237 236 307 101 247 255 298 354 169 272 195 190 192
94 90 84 92 101 135 146 196 351 147 149 156 107 177 183 210 257 203 221 221 212 205 221 210 230 166 186 200 212 197 220 232 283 275 274 247 247 263 201 219 218 185 175 183 190
111 96 96 119 125 115 109 216 278 15 329 175 201 204 185 199 203 198 203 231 224 216 229 265 266 175 184 224 232 261 212 210 225 244 246 253 263 260 236 223 198 187 188 187 188
136 173 180 146 134 151 215 209 270 264 342 268 219 207 230 191 211 202 247 196 216 215 213 263 249 103 146 209 207 196 221 218 229 230 254 289 263 34 9 326 202 200 197 194 191
160 162 184 161 163 240 198 186 241 219 55 318 300 251 215 209 205 214 236 228 196 208 213 212 276 243 218 317 250 242 220 215 220 214 233 259 265 208 133 122 195 203 200 196 195
166 113 181 166 218 210 201 240 232 187 171 49 301 302 237 229 223 214 226 232 217 208 212 186 226 237 233 238 215 236 233 235 231 253 246 225 249 53 187 212 212 197 191 191 192
166 169 158 197 247 260 207 223 210 207 222 176 259 286 254 238 233 243 225 209 203 235 230 257 234 224 230 230 192 210 218 225 236 232 242 242 248 238 213 220 197 192 193 193 192
196 201 176 197 229 218 213 187 195 197 207 203 209 228 256 251 236 241 237 207 206 198 215 228 247 238 249 257 270 269 223 216 217 232 223 246 244 244 253 246 212 195 193 194 196
197 174 174 176 170 191 202 217 222 219 169 200 225 217 217 240 319 351 326 242 217 194 183 226 256 257 266 254 246 243 252 241 226 234 238 251 260 248 272 289 192 195 195 200 203
208 203 183 172 178 185 209 215 218 212 231 223 213 247 251 246 276 260 250 262 275 330 290 201 216 219 249 238 247 241 229 231 244 237 239 248 246 262 247 227 204 207 203 205 206